Flag for U.S.A. Weather past 2 weeks in Antioch, California, U.S.A.

Now
90 °F

Sunny.


Feels Like: 88 °F
Forecast: 63 / 103 °F
Wind: 6 mph from Northwest

Location: Buchanan Field

Current Time: Jun 30, 2015 at 12:48:33 PM

Latest Report: Jun 30, 2015 at 11:53 AM


Visibility: 10 mi

Pressure: 29.82 "Hg

Humidity: 29%

Dew point: 54 °F

Location of AntiochLocation

Historic Weather in Antioch — Graph

°F

Antioch temperature yesterday

Maximum temperature yesterday: 91 °F (at 3:53 PM)
Minimum temperature yesterday: 58 °F (at 4:53 AM)
Average temperature yesterday: 73 °F

Past Weeks' High & Low Weather Summary

 TemperatureHumidityPressure
High99 °F (Jun 25, 2:53 PM)83% (Jun 20, 5:53 AM)30.00 "Hg (Jun 20, 5:53 AM)
Low56 °F (Jun 16, 2:53 AM)12% (Jun 25, 5:53 PM)29.76 "Hg (Jun 20, 5:53 PM)
Average72 °F50%29.88 "Hg
* Reported Jun 15 11:53 AM — Jun 30 11:53 AM, Antioch, Weather by CustomWeather, © 2015

Note: Actual official high and low records may vary slightly from our data, if they occured in-between our weather recording intervals... More about our weather records

Advertising

Antioch weather history for previous 24 hours

 ConditionsComfort  
Time TempWeatherWind HumidityBarometerVisibility
11:53 AM
Tue, Jun 30
90 °FSunny.6 mph29%29.82 "Hg10 mi
10:53 AM84 °FSunny.6 mph40%29.83 "Hg10 mi
9:53 AM78 °FSunny.No wind48%29.84 "Hg10 mi
8:53 AM74 °FSunny.No wind52%29.85 "Hg10 mi
7:53 AM68 °FSunny.No wind65%29.85 "Hg10 mi
6:53 AM64 °FSunny.3 mph75%29.85 "Hg10 mi
5:53 AM62 °FClear.5 mph80%29.84 "Hg10 mi
4:53 AM62 °FClear.3 mph80%29.84 "Hg10 mi
3:53 AM62 °FClear.3 mph80%29.84 "Hg10 mi
2:53 AM64 °FClear.No wind75%29.85 "Hg10 mi
1:53 AM64 °FClear.No wind73%29.85 "Hg10 mi
12:53 AM65 °FClear.5 mph70%29.85 "Hg10 mi
11:53 PM
Mon, Jun 29
69 °FClear.3 mph59%29.85 "Hg10 mi
10:53 PM74 °FClear.7 mph45%29.86 "Hg10 mi
9:53 PM76 °FClear.8 mph43%29.85 "Hg10 mi
8:53 PM79 °FSunny.8 mph41%29.85 "Hg10 mi
7:53 PM83 °FSunny.6 mph31%29.84 "Hg10 mi
6:53 PM86 °FSunny.12 mph29%29.83 "Hg10 mi
5:53 PM89 °FSunny.14 mph25%29.83 "Hg10 mi
4:53 PM91 °FSunny.12 mph19%29.83 "Hg10 mi
3:53 PM91 °FSunny.9 mph21%29.85 "Hg10 mi
2:53 PM90 °FSunny.13 mph24%29.87 "Hg10 mi
1:53 PM86 °FSunny.13 mph31%29.89 "Hg10 mi
12:53 PM84 °FSunny.15 mph31%29.91 "Hg10 mi
Weather by CustomWeather, © 2015

See weather overviewHow to use our weather pages